Showing default

GHGSAT-C12, 64529

Orbit data source: Space-Track

GHGSAT-C12, 64529 is a payload satellite owned by GHG (CA) in SSO that was launched on Mon, 23 Jun 2025 UTC via an FALCON 9 launch vehicle from the Air Force Western Test Range (AFWTR). Payload-class satellites include a variety of spacecraft equipped with specific instruments for various scientific and technological missions. These include communications satellites like Starlink; space stations such as the ISS; scientific satellites like the Hubble; Earth observation satellites from companies like Planet Labs, Umbra, and HawkEye 360; GPS; miniature CubeSats for education and research; and military/defense satellites.

Loading next visibility...
Identifier
64529, 2025-135B
Orbit
SSO
Country
Flag of CACA
Related business
Manufacturer
UTIAS-SFL
Mission
Operational Commercial Earth Obs Sci
Bus & Motor
NEMO-V1, Unknown motor
Mass
15 kg wet, 15 kg dry
Launch date (UTC)
2025-06-23 (9 months ago)
Launch vehicle
FALCON 9
Launch site
Air Force Western Test Range (AFWTR)
Object type
Payload
Rocket body
Debris
Shape & HBR
Box, 1.0 m
Radar Cross Section
0.100 m², Small (<0.1 m²)

Expand to show TLE details & history
Last TLE update: 7 hours ago

TLE from 7 hours ago
0 GHGSAT-C12
1 64529U 25135B   26072.92163493  .00004863  00000-0  23155-3 0  9996
2 64529  97.4619 188.6861 0006130 135.9450 224.2274 15.19598769 40354
Epoch: 2026-03-13T22:07Z
TLE epoch observation values (Epoch: 2026-03-13T22:07:09.257Z)
Latitude
-0.00007°
Longitude
45.34731°
Altitude
513.167 km
Speed
7.605 km/s
True Right ascension
12h 34m 44s
True Declination
0° 00' 00"
Sunlit
Object was in full shadow at epoch
Visualization orbit readout
Latitude
Unknown
Longitude
Unknown
Altitude
Unknown
Speed
Unknown
Apparent Right ascension
Unknown
Apparent Declination
Unknown
Sunlit
N/A
Visualization observer readout
Local Sidereal Time
09:26:53
Azimuth
Unknown
Elevation
Unknown
Doppler factor
Unknown
Orbital elements
Apogee altitude
508.24 km
Perigee altitude
499.802 km
Semi-major axis
6,882.158 km
Eccentricity
0.00061
Inclination
97.4619°
RAAN
188.6861°
Arg. of periapsis
135.945°
True anomaly
224.17843°
Mean anomaly
224.2274°
Eccentric anomaly
224.20291°
Mean motion
3.80151 °/min
Orbital period
94.7 mins
BSTAR
0.00023155
Loading maneuver chart data...
Computing Atmospheric mass density...
Loading historical data...
Loading historical data...
Loading historical data...
Loading historical data...
Loading historical data...
Loading historical data...
Loading historical data...

Documentation

Showing up to 5 results
|